International Skating Union - Official Site

ISU World Cup Heerenveen
December 12-14, 2014

Draw | Lap Times | Index | World Cup

Referee: Dan  IMMERFALL  (USA)
Starter: Ole Herman  SÖRLI  (NOR)
StartTime: EndTime: Air Temp: Ice Temp: Humidity:
17:32 17:45 14℃ -7.5℃ 30%
Result Mass Start Men
Rankings as of Dec 14 2014 6:24PM
Rank: No.: Name: Nation: Time: Behind: Points:
1 80 Jorrit  Bergsma NED NED 7:32.92 100
2 77 Seung-Hoon  Lee KOR KOR 7:34.57 1.65 80
3 45 Fabio  Francolini ITA ITA 7:34.60 1.68 70
4 11 Tyler  Derraugh CAN CAN 7:46.38 13.46 60
5 46 Andrea  Giovannini ITA ITA 7:46.33 13.41 50
6 36 Patrick  Beckert GER GER 7:39.60 6.68 45
7 22 Longjiang  Sun CHN CHN 7:40.44 7.52 40
8 79 Haralds  Silovs LAT LAT 7:35.05 2.13 36
9 42 Marco  Weber GER GER 7:40.65 7.73 32
10 33 Alexis  Contin FRA FRA 7:34.65 1.73 28
11 5 Bart  Swings BEL BEL 7:34.69 1.77 24
12 71 Cheol-Min  Kim KOR KOR 7:34.98 2.06 21
13 18 Robert  Watson CAN CAN 7:35.27 2.35 18
14 92 Arjan  Stroetinga NED NED 7:36.05 3.13 16
15 62 Shane  Williamson JPN JPN 7:37.45 4.53 14
16 105 Peter  Michael NZL NZL 7:39.07 6.15 12
17 138 Jeffrey  Swider-Peltz USA USA 7:39.33 6.41 10
18 124 Yevgeny  Seryaev RUS RUS 7:39.73 6.81 8
19 107 Roland  Cieslak POL POL 7:40.09 7.17 6
20 64 Dmitry  Babenko KAZ KAZ 7:41.10 8.18 5
21 61 Ryosuke  Tsuchiya JPN JPN 7:41.24 8.32 4
22 3 Armin  Hager AUT AUT 7:42.25 9.33 3
23 27 Stefan  Due Schmidt DEN DEN 7:43.51 10.59 2
24 129 Martin  Hänggi SUI SUI 7:45.07 12.15 1
25 7 Vitaly  Mikhailov BLR BLR 7:45.63 12.71 0
26 43 Konrád  Nagy HUN HUN 7:49.32 16.40 0
27 4 Bram  Smallenbroek AUT AUT 7:53.38 20.46 0
28 1 Joshua  Capponi AUS AUS 8:06.39 33.47 0